Weather History for Anaktuvuk Pass, AK

Change the Weather History Date:

Thursday, February 20, 2014

  Actual Average Record
Temperature  
Mean Temperature -30 °F -  
Max Temperature -25 °F -1 °F 30 °F (2008)
Min Temperature -34 °F -12 °F -43 °F (2013)
Degree Days  
Heating Degree Days 94    
Moisture  
Dew Point -    
Average Humidity    
Maximum Humidity    
Minimum Humidity    
Precipitation  
Precipitation 0.00 in - - ()
Sea Level Pressure  
Sea Level Pressure 29.91 in    
Wind  
Wind Speed 3 mph (North)    
Max Wind Speed 6 mph    
Max Gust Speed -    
Visibility 8 miles    
Events      
Averages and records for this station are not official NWS values.
T = Trace of Precipitation, MM = Missing Value Source: NWS Daily Summary

Daily Weather History Graph

Daily Weather History Graph

Search for Another Location

Airport:

Trip Planner

Search our weather history database for the weather conditions in past years. The results will help you decide how hot, cold, wet, or windy it might be!

Date:

Astronomy

Feb. 20, 2014 Rise Set
Actual Time 9:03 AM AKST 5:39 PM AKST
Civil Twilight 8:04 AM AKST 6:38 PM AKST
Nautical Twilight 6:59 AM AKST 7:44 PM AKST
Astronomical Twilight 5:54 AM AKST 8:49 PM AKST
Moon 1:27 AM AKST (2/20) 8:58 AM AKST (2/20)
Length of Visible Light 10h 34m
Length of Day
8h 35m
Waning Gibbous, 69% of the Moon is Illuminated
Feb 20
Waning Gibbous
Feb 22
Last Quarter
Feb 28
New
Mar 8
First Quarter
Mar 16
Full

Hourly Weather History & Observations

Time (AKST) Temp. Windchill Dew Point Humidity Pressure Visibility Wind Dir Wind Speed Gust Speed Precip Events Conditions
12:16 AM -32.8 °F -50.5 °F - N/A% 29.80 in 9.0 mi North 5.8 mph - N/A   Clear
12:36 AM -32.8 °F -48.2 °F - N/A% 29.80 in 10.0 mi North 4.6 mph - N/A   Clear
12:56 AM -32.8 °F -45.3 °F - N/A% 29.81 in 10.0 mi North 3.5 mph - N/A   Clear
1:16 AM -31.0 °F -48.4 °F - N/A% 29.81 in 7.0 mi North 5.8 mph - N/A   Clear
1:36 AM -32.8 °F - - N/A% 29.82 in 10.0 mi Calm Calm - N/A   Clear
1:56 AM -32.8 °F -50.5 °F - N/A% 29.82 in 9.0 mi North 5.8 mph - N/A   Clear
2:16 AM -32.8 °F -50.5 °F - N/A% 29.83 in 7.0 mi North 5.8 mph - N/A   Clear
2:36 AM -31.0 °F -43.3 °F - N/A% 29.83 in 10.0 mi North 3.5 mph - N/A   Clear
2:56 AM -31.0 °F -43.3 °F - N/A% 29.84 in 9.0 mi North 3.5 mph - N/A   Clear
3:16 AM -31.0 °F -48.4 °F - N/A% 29.84 in 10.0 mi North 5.8 mph - N/A   Clear
3:36 AM -29.2 °F -44.0 °F - N/A% 29.84 in 10.0 mi North 4.6 mph - N/A   Clear
3:56 AM -32.8 °F -45.3 °F - N/A% 29.84 in 10.0 mi North 3.5 mph - N/A   Clear
4:16 AM -32.8 °F -50.5 °F - N/A% 29.85 in 10.0 mi North 5.8 mph - N/A   Clear
4:36 AM -32.8 °F -48.2 °F - N/A% 29.85 in 10.0 mi North 4.6 mph - N/A   Clear
4:56 AM -32.8 °F -45.3 °F - N/A% 29.85 in 10.0 mi NNW 3.5 mph - N/A   Clear
5:16 AM -32.8 °F -45.3 °F - N/A% 29.85 in 10.0 mi North 3.5 mph - N/A   Clear
5:36 AM -32.8 °F -45.3 °F - N/A% 29.85 in 10.0 mi North 3.5 mph - N/A   Clear
5:56 AM -32.8 °F -45.3 °F - N/A% 29.86 in 10.0 mi North 3.5 mph - N/A   Clear
6:16 AM -32.8 °F -48.2 °F - N/A% 29.86 in 8.0 mi North 4.6 mph - N/A   Clear
6:36 AM -32.8 °F -48.2 °F - N/A% 29.86 in 10.0 mi North 4.6 mph - N/A   Clear
6:56 AM -32.8 °F -45.3 °F - N/A% 29.87 in 10.0 mi North 3.5 mph - N/A   Clear
7:16 AM -31.0 °F - - N/A% 29.87 in 10.0 mi Calm Calm - N/A   Clear
7:36 AM -32.8 °F -48.2 °F - N/A% 29.87 in 9.0 mi North 4.6 mph - N/A   Clear
7:56 AM -32.8 °F -45.3 °F - N/A% 29.88 in 5.0 mi North 3.5 mph - N/A   Clear
8:16 AM -32.8 °F -45.3 °F - N/A% 29.88 in 5.0 mi NNW 3.5 mph - N/A   Clear
8:36 AM -32.8 °F -45.3 °F - N/A% 29.88 in 3.0 mi North 3.5 mph - N/A   Clear
8:56 AM -32.8 °F - - N/A% 29.89 in 2.5 mi Calm Calm - N/A   Clear
9:16 AM -34.6 °F - - N/A% 29.90 in 5.0 mi Calm Calm - N/A   Clear
9:36 AM -32.8 °F - - N/A% 29.90 in 5.0 mi Calm Calm - N/A   Clear
9:56 AM -34.6 °F - - N/A% 29.90 in 1.8 mi Calm Calm - N/A   Clear
10:16 AM -34.6 °F - - N/A% 29.91 in 7.0 mi Calm Calm - N/A   Clear
10:36 AM -34.6 °F - - N/A% 29.90 in 2.5 mi Calm Calm - N/A   Clear
10:56 AM -32.8 °F - - N/A% 29.90 in 8.0 mi Calm Calm - N/A   Clear
11:16 AM -32.8 °F - - N/A% 29.90 in 5.0 mi Calm Calm - N/A   Clear
11:36 AM -31.0 °F - - N/A% 29.90 in 7.0 mi Calm Calm - N/A   Clear
11:56 AM -29.2 °F - - N/A% 29.91 in 3.0 mi Calm Calm - N/A   Clear
12:16 PM -27.4 °F - - N/A% 29.91 in 9.0 mi Calm Calm - N/A   Clear
12:36 PM -27.4 °F - - N/A% 29.92 in 5.0 mi Calm Calm - N/A   Clear
12:56 PM -27.4 °F - - N/A% 29.92 in 9.0 mi Calm Calm - N/A   Clear
1:16 PM -29.2 °F -41.2 °F - N/A% 29.93 in 10.0 mi South 3.5 mph - N/A   Clear
1:36 PM -27.4 °F - - N/A% 29.93 in 3.0 mi Calm Calm - N/A   Clear
1:56 PM -29.2 °F - - N/A% 29.93 in 9.0 mi Calm Calm - N/A   Clear
2:16 PM -27.4 °F -39.2 °F - N/A% 29.93 in 7.0 mi SSW 3.5 mph - N/A   Clear
2:36 PM -27.4 °F - - N/A% 29.93 in 8.0 mi Calm Calm - N/A   Clear
2:56 PM -25.6 °F - - N/A% 29.94 in 4.0 mi Calm Calm - N/A   Clear
3:16 PM -25.6 °F - - N/A% 29.94 in 4.0 mi Calm Calm - N/A   Clear
3:36 PM -25.6 °F - - N/A% 29.94 in 5.0 mi Calm Calm - N/A   Clear
3:56 PM -25.6 °F - - N/A% 29.94 in 9.0 mi Calm Calm - N/A   Clear
4:16 PM -25.6 °F - - N/A% 29.94 in 9.0 mi Calm Calm - N/A   Clear
4:36 PM -25.6 °F - - N/A% 29.95 in 8.0 mi Calm Calm - N/A   Clear
4:56 PM -25.6 °F - - N/A% 29.95 in 3.0 mi Calm Calm - N/A   Clear
5:16 PM -25.6 °F - - N/A% 29.95 in 8.0 mi Calm Calm - N/A   Clear
5:36 PM -27.4 °F - - N/A% 29.95 in 7.0 mi Calm Calm - N/A   Clear
5:56 PM -27.4 °F - - N/A% 29.96 in 7.0 mi Calm Calm - N/A   Partly Cloudy
6:16 PM -27.4 °F - - N/A% 29.96 in 10.0 mi Calm Calm - N/A   Clear
6:36 PM -27.4 °F - - N/A% 29.96 in 10.0 mi Calm Calm - N/A   Clear
6:56 PM -29.2 °F - - N/A% 29.96 in 10.0 mi Calm Calm - N/A   Clear
7:16 PM -29.2 °F - - N/A% 29.97 in 10.0 mi Calm Calm - N/A   Partly Cloudy
7:36 PM -29.2 °F - - N/A% 29.97 in 3.0 mi Calm Calm - N/A   Partly Cloudy
7:56 PM -29.2 °F - - N/A% 29.97 in 10.0 mi Calm Calm - N/A   Clear
8:16 PM -29.2 °F - - N/A% 29.97 in 8.0 mi Calm Calm - N/A   Clear
8:36 PM -29.2 °F - - N/A% 29.98 in 10.0 mi Calm Calm - N/A   Partly Cloudy
8:56 PM -29.2 °F - - N/A% 29.98 in 10.0 mi Calm Calm - N/A   Clear
9:16 PM -29.2 °F - - N/A% 29.98 in 10.0 mi Calm Calm - N/A   Clear
9:36 PM -29.2 °F - - N/A% 29.99 in 10.0 mi Calm Calm - N/A   Clear
9:56 PM -27.4 °F - - N/A% 29.99 in 10.0 mi Calm Calm - N/A   Clear
10:16 PM -29.2 °F - - N/A% 30.00 in 5.0 mi Calm Calm - N/A   Clear
10:36 PM -29.2 °F - - N/A% 30.00 in 8.0 mi Calm Calm - N/A   Partly Cloudy
10:56 PM -29.2 °F - - N/A% 30.01 in 9.0 mi Calm Calm - N/A   Partly Cloudy
11:16 PM -29.2 °F - - N/A% 30.01 in 10.0 mi Calm Calm - N/A   Clear
11:36 PM -29.2 °F - - N/A% 30.01 in 10.0 mi Calm Calm - N/A   Clear
11:56 PM -29.2 °F - - N/A% 30.01 in 10.0 mi Calm Calm - N/A   Partly Cloudy